Welcome to the New NWS' Forecast!
Most changes are behind the scenes, but click here for differences you might notice.

Regional Weather Roundup (RWR)

Issued by Gray - Portland, ME (GYX)

                            
917 
ASUS41 KGYX 151305
RWRGYX
WEATHER ROUNDUP FOR MAINE AND NEW HAMPSHIRE
NATIONAL WEATHER SERVICE GRAY ME
900 AM EDT WED AUG 15 2018

MEZ002-005-006-010-012-015-018-020-021-024-026-027-029-151400-
MAINE
  
CITY           SKY/WX    TMP DP  RH WIND       PRES   REMARKS
PORTLAND       CLOUDY    71  69  93 CALM      29.83S                  
BAR HARBOR     CLOUDY    70  70 100 S7        29.83F FOG              
WISCASSET      CLOUDY    71  70  96 CALM      29.84S                  
ROCKLAND       CLOUDY    69  69 100 S6        29.83R                  
FRYEBURG       CLOUDY    71  70  96 S3        29.85R                  
LEWISTONAUBURN CLOUDY    71  68  90 MISG      29.84S                  
AUGUSTA        CLOUDY    72  67  84 VRB5      29.83S                  
WATERVILLE     CLOUDY    73  67  81 VRB5      29.80S                  
BANGOR         CLOUDY    72  70  93 S7        29.82F FOG              
GREENVILLE       N/A     69  66  90 SW3       29.83F                  
MILLINOCKET    CLOUDY    74  66  76 VRB3      29.82S                  
HOULTON        CLOUDY    72  69  90 SW7       29.79S                  
PRESQUE ISLE   CLOUDY    72  67  84 SW7       29.79S                  
FRENCHVILLE    CLOUDY    71  67  87 SW5       29.78R                  
CARIBOU        CLOUDY    74  68  81 SW8       29.77S                  
$$

NHZ002-005-008-009-011-012-014-151400-
NEW HAMPSHIRE
  
CITY           SKY/WX    TMP DP  RH WIND       PRES   REMARKS
PORTSMOUTH     CLOUDY    71  69  94 NW3       29.82S                  
ROCHESTER      CLOUDY    71  70  96 CALM      29.83F                  
MANCHESTER     NOT AVBL                                               
CONCORD        CLOUDY    72  69  90 SW5       29.84S                  
LACONIA        CLOUDY    71  68  90 W7        29.85S                  
PLYMOUTH       FAIR      71  66  83 CALM      29.84S                  
BERLIN         CLOUDY    68  66  93 CALM      29.87S                  
WHITEFIELD     CLOUDY    69  65  86 CALM      29.87R                  
JAFFREY        NOT AVBL                                               
LEBANON        CLOUDY    70  64  81 CALM      29.86R                  
MT WASHINGTON  PTSUNNY   55  48  76 NW15        N/A                   
$$

VTZ005-007-008-151400-
VERMONT
  
CITY           SKY/WX    TMP DP  RH WIND       PRES   REMARKS
ST JOHNSBURY     N/A     68  66  93 MISG      29.85R                  
MONTPELIER     CLOUDY    65  65 100 CALM      29.92R                  
BURLINGTON     PTSUNNY   73  68  84 S6        29.85R                  
$$

MAZ007-012-024-CTZ003-RIZ002-NYZ038-NYZ072-151400-
SOUTHERN NEW ENGLAND AND NY
  
CITY           SKY/WX    TMP DP  RH WIND       PRES   REMARKS
BOSTON         CLOUDY    75  69  81 SW7       29.83S                  
WORCESTER      PTSUNNY   70  67  90 W7        29.88S                  
NANTUCKET      PTSUNNY   71  70  96 SW13      29.84F                  
PROVIDENCE     PTSUNNY   74  69  85 W6        29.85R                  
HARTFORD       FAIR      76  67  73 CALM      29.86R                  
ALBANY         FAIR      75  67  76 NW6       29.87S                  
NEW YORK CITY  FAIR      77  65  66 NW13      29.89R                  
$$

ANZ081-ANZ082-ANZ150-NHZ014-MEZ023>029-151400-
COASTAL MARINE OBSERVATIONS
  
STATION/POSITION TIME  TEMP    WIND        PRES    WAVE
                       AIR SEA DIR/SP/G            HT/PER
                 (UTC) (F)     (DEG/KT/KT) (MB)    (FT/S)
MOUNT DESERT ROC 1300   67     170/ 13/ 14 1010.4S
MATINICUS ROCK   1200   65     260/  9/ 10 1009.9R
ISLE OF SHOALS   1200   68     290/  5/  6 1009.6R
JEFFREYS LEDGE   1236      69                N/A     2/ 7
$$

.............KEY..............
   WCI - WIND CHILL
   TC  - TEMPERATURE IN CELSIUS
   VSB - VISIBILITY IN MILES
   HX  - HEAT INDEX
   FAIR- INDICATES FEW OR NO CLOUDS BELOW 12,000 FT, WITH NO 
         SIGNIFICANT WEATHER AND/OR OBSTRUCTIONS TO VISIBILITY.